TimeEST,TemperatureF,Dew PointF,Humidity,Sea Level PressureIn,VisibilityMPH,Wind Direction,Wind SpeedMPH,Gust SpeedMPH,PrecipitationIn,Events,Conditions,WindDirDegrees,DateUTC
12:15 AM,29.3,22.6,76,30.10,10.0,Calm,Calm,-,N/A,,Mostly Cloudy,0,2013-02-16 05:15:00
12:35 AM,29.3,22.8,77,30.10,10.0,Calm,Calm,-,N/A,,Overcast,0,2013-02-16 05:35:00
12:55 AM,28.9,22.8,78,30.09,10.0,Calm,Calm,-,N/A,,Overcast,0,2013-02-16 05:55:00
1:15 AM,28.9,23.0,78,30.09,10.0,Calm,Calm,-,N/A,,Overcast,0,2013-02-16 06:15:00
1:35 AM,28.8,23.4,80,30.09,10.0,Calm,Calm,-,N/A,,Overcast,0,2013-02-16 06:35:00
1:55 AM,28.0,23.0,81,30.09,10.0,West,3.5,-,N/A,,Overcast,280,2013-02-16 06:55:00
2:15 AM,27.1,22.6,83,30.09,10.0,WNW,3.5,-,N/A,,Scattered Clouds,290,2013-02-16 07:15:00
2:35 AM,26.6,22.5,84,30.09,10.0,Calm,Calm,-,N/A,,Scattered Clouds,0,2013-02-16 07:35:00
2:55 AM,25.3,22.1,87,30.08,10.0,Calm,Calm,-,N/A,,Scattered Clouds,0,2013-02-16 07:55:00
3:15 AM,25.3,22.1,87,30.07,10.0,Calm,Calm,-,N/A,,Clear,0,2013-02-16 08:15:00
3:35 AM,23.7,21.6,91,30.06,10.0,Calm,Calm,-,N/A,,Clear,0,2013-02-16 08:35:00
3:55 AM,23.4,21.2,91,30.06,10.0,Calm,Calm,-,N/A,,Clear,0,2013-02-16 08:55:00
4:15 AM,22.8,21.0,93,30.06,10.0,West,3.5,-,N/A,,Scattered Clouds,270,2013-02-16 09:15:00
4:35 AM,22.3,20.5,93,30.06,10.0,West,3.5,-,N/A,,Scattered Clouds,260,2013-02-16 09:35:00
4:55 AM,21.6,19.8,93,30.06,10.0,West,3.5,-,N/A,,Scattered Clouds,270,2013-02-16 09:55:00
5:15 AM,21.7,19.8,92,30.06,10.0,West,3.5,-,N/A,,Scattered Clouds,270,2013-02-16 10:15:00
5:35 AM,22.1,19.9,91,30.06,10.0,Calm,Calm,-,N/A,,Scattered Clouds,0,2013-02-16 10:35:00
6:35 AM,20.3,18.3,92,30.06,10.0,West,3.5,-,N/A,,Mostly Cloudy,270,2013-02-16 11:35:00
6:55 AM,19.8,18.0,93,30.05,10.0,West,3.5,-,N/A,,Scattered Clouds,270,2013-02-16 11:55:00
7:15 AM,19.4,17.6,93,30.06,10.0,Calm,Calm,-,N/A,,Clear,0,2013-02-16 12:15:00
7:35 AM,19.2,17.6,93,30.06,10.0,Calm,Calm,-,N/A,,Clear,0,2013-02-16 12:35:00
7:55 AM,20.1,18.3,93,30.06,7.0,Calm,Calm,-,N/A,,Scattered Clouds,0,2013-02-16 12:55:00
8:15 AM,19.4,18.0,94,30.06,10.0,Calm,Calm,-,N/A,,Scattered Clouds,0,2013-02-16 13:15:00
8:35 AM,20.8,19.2,93,30.07,10.0,Calm,Calm,-,N/A,,Clear,0,2013-02-16 13:35:00
8:55 AM,22.3,20.5,93,30.06,10.0,Calm,Calm,-,N/A,,Clear,0,2013-02-16 13:55:00
9:15 AM,23.9,20.7,87,30.06,10.0,Calm,Calm,-,N/A,,Clear,0,2013-02-16 14:15:00
9:35 AM,25.2,20.8,84,30.06,10.0,North,3.5,-,N/A,,Clear,350,2013-02-16 14:35:00
9:55 AM,26.2,19.0,74,30.06,10.0,Calm,Calm,-,N/A,,Clear,0,2013-02-16 14:55:00
10:15 AM,27.1,18.3,69,30.06,10.0,Calm,Calm,-,N/A,,Clear,0,2013-02-16 15:15:00
10:35 AM,28.8,14.4,55,30.05,10.0,NNE,3.5,-,N/A,,Clear,20,2013-02-16 15:35:00
1:15 PM,30.4,10.9,44,29.99,10.0,NNW,8.1,-,N/A,,Overcast,330,2013-02-16 18:15:00
1:35 PM,30.9,10.9,43,29.99,10.0,WNW,6.9,-,N/A,,Overcast,290,2013-02-16 18:35:00
1:55 PM,32.0,12.4,44,29.98,10.0,West,6.9,-,N/A,,Overcast,270,2013-02-16 18:55:00
2:15 PM,32.0,12.0,44,29.98,10.0,West,8.1,-,N/A,,Overcast,260,2013-02-16 19:15:00
2:35 PM,31.1,10.8,43,29.98,10.0,WNW,10.4,-,N/A,,Overcast,300,2013-02-16 19:35:00
2:55 PM,31.8,13.1,46,29.97,10.0,WSW,6.9,-,N/A,,Scattered Clouds,250,2013-02-16 19:55:00
3:15 PM,31.1,12.4,46,29.97,10.0,West,3.5,-,N/A,,Mostly Cloudy,270,2013-02-16 20:15:00
3:35 PM,32.0,13.8,47,29.97,10.0,NW,9.2,16.1,N/A,,Overcast,310,2013-02-16 20:35:00
3:55 PM,31.5,16.0,53,29.97,10.0,NW,6.9,-,N/A,,Overcast,310,2013-02-16 20:55:00
4:15 PM,31.1,17.8,58,29.97,10.0,West,12.7,-,N/A,,Mostly Cloudy,280,2013-02-16 21:15:00
4:35 PM,29.7,18.9,64,29.98,10.0,NW,10.4,-,N/A,,Mostly Cloudy,310,2013-02-16 21:35:00
4:55 PM,26.4,22.8,86,29.98,0.8,West,5.8,17.3,N/A,Snow,Light Snow,270,2013-02-16 21:55:00
5:15 PM,27.3,23.0,84,29.99,3.0,West,5.8,-,N/A,Snow,Light Snow,270,2013-02-16 22:15:00
5:35 PM,27.0,23.4,86,29.99,3.0,West,5.8,-,N/A,Snow,Light Snow,280,2013-02-16 22:35:00
5:55 PM,27.3,19.8,73,29.99,7.0,WNW,16.1,24.2,N/A,Snow,Light Snow,300,2013-02-16 22:55:00
6:15 PM,27.5,16.3,63,30.00,10.0,West,11.5,-,N/A,,Overcast,280,2013-02-16 23:15:00
6:35 PM,26.8,14.0,59,30.00,10.0,West,11.5,-,N/A,,Mostly Cloudy,280,2013-02-16 23:35:00
6:55 PM,26.4,13.1,57,30.01,10.0,West,10.4,-,N/A,,Mostly Cloudy,280,2013-02-16 23:55:00
7:15 PM,25.5,12.9,59,30.01,10.0,WNW,8.1,-,N/A,,Scattered Clouds,300,2013-02-17 00:15:00
7:35 PM,25.3,11.3,55,30.02,10.0,WNW,13.8,20.7,N/A,,Scattered Clouds,290,2013-02-17 00:35:00
7:55 PM,24.4,12.6,61,30.02,10.0,WNW,9.2,16.1,N/A,,Clear,300,2013-02-17 00:55:00
8:15 PM,23.9,12.2,61,30.02,10.0,WNW,11.5,-,N/A,,Clear,290,2013-02-17 01:15:00
8:35 PM,23.4,12.6,63,30.02,10.0,WNW,10.4,17.3,N/A,,Clear,300,2013-02-17 01:35:00
8:55 PM,23.0,13.3,66,30.03,10.0,WNW,8.1,16.1,N/A,,Scattered Clouds,300,2013-02-17 01:55:00
9:15 PM,22.3,12.0,65,30.03,10.0,WNW,9.2,19.6,N/A,,Scattered Clouds,300,2013-02-17 02:15:00
9:55 PM,21.2,10.4,63,30.04,10.0,WNW,8.1,-,N/A,,Clear,300,2013-02-17 02:55:00
10:15 PM,21.4,9.7,61,30.04,10.0,WNW,10.4,18.4,N/A,,Scattered Clouds,300,2013-02-17 03:15:00
10:35 PM,21.7,10.8,63,30.05,10.0,WNW,11.5,21.9,N/A,,Mostly Cloudy,290,2013-02-17 03:35:00
10:55 PM,21.6,11.5,65,30.05,10.0,WNW,8.1,-,N/A,,Overcast,300,2013-02-17 03:55:00
11:15 PM,21.2,11.1,65,30.05,10.0,WNW,9.2,-,N/A,,Overcast,300,2013-02-17 04:15:00
11:35 PM,20.8,11.3,67,30.04,10.0,WNW,10.4,18.4,N/A,,Overcast,300,2013-02-17 04:35:00
11:55 PM,20.7,12.0,69,30.04,10.0,WNW,9.2,-,N/A,Snow,Light Snow,290,2013-02-17 04:55:00